LNI685 WIOO-WIII

Flight info

Callsign LNI685
Flight time 1h 8m
Altitude 34000
Route MASRI W38 AMBOY
Aircraft B739/M-SDE2E3FGHIRWXY/LB1

Departure

Time 2026-05-07 06:10
Airport Supadio International Airport (WIOO)

Arrival

Time 2026-05-07 07:19
Airport Soekarno-Hatta International Airport (WIII)
Time Latitude Longitude Altitude Speed Heading
2026-05-07 05:59 -0.14707 109.40388 31 ft 0 kts 67°
2026-05-07 06:05 -0.14709 109.40383 31 ft 2 kts 67°
2026-05-07 06:05 -0.14716 109.40365 29 ft 3 kts 69°
2026-05-07 06:05 -0.14722 109.40350 31 ft 3 kts 50°
2026-05-07 06:06 -0.14733 109.40343 31 ft 3 kts 351°
2026-05-07 06:06 -0.14753 109.40348 31 ft 3 kts 338°
2026-05-07 06:06 -0.14764 109.40353 31 ft 0 kts 338°
2026-05-07 06:07 -0.14737 109.40342 30 ft 7 kts 338°
2026-05-07 06:08 -0.14678 109.40319 30 ft 10 kts 338°
2026-05-07 06:08 -0.14608 109.40291 30 ft 7 kts 338°
2026-05-07 06:08 -0.14555 109.40269 30 ft 9 kts 338°
2026-05-07 06:08 -0.14487 109.40242 30 ft 12 kts 338°
2026-05-07 06:09 -0.14427 109.40216 29 ft 5 kts 323°
2026-05-07 06:09 -0.14426 109.40188 29 ft 5 kts 254°
2026-05-07 06:09 -0.14443 109.40139 29 ft 10 kts 219°
2026-05-07 06:09 -0.14470 109.40140 29 ft 0 kts 158°
2026-05-07 06:10 -0.14590 109.40185 30 ft 60 kts 158°
2026-05-07 06:10 -0.15270 109.40464 30 ft 147 kts 158°
2026-05-07 06:10 -0.16364 109.40913 415 ft 181 kts 159°
2026-05-07 06:10 -0.17517 109.41359 1551 ft 179 kts 161°
2026-05-07 06:11 -0.18807 109.41510 2217 ft 204 kts 182°
2026-05-07 06:11 -0.20323 109.41371 2481 ft 234 kts 186°
2026-05-07 06:11 -0.22005 109.41177 2866 ft 257 kts 186°
2026-05-07 06:11 -0.23842 109.40967 3471 ft 271 kts 188°
2026-05-07 06:12 -0.25671 109.40489 4448 ft 273 kts 198°
2026-05-07 06:12 -0.27478 109.39872 5409 ft 276 kts 199°
2026-05-07 06:12 -0.29308 109.39240 6321 ft 280 kts 198°
2026-05-07 06:12 -0.31164 109.38604 7223 ft 284 kts 198°
2026-05-07 06:13 -0.33049 109.37962 8056 ft 289 kts 198°
2026-05-07 06:13 -0.34963 109.37317 8898 ft 292 kts 198°
2026-05-07 06:13 -0.36907 109.36665 9719 ft 296 kts 198°
2026-05-07 06:13 -0.38889 109.36003 10317 ft 310 kts 198°
2026-05-07 06:14 -0.41018 109.35297 10499 ft 335 kts 198°
2026-05-07 06:14 -0.43298 109.34542 10761 ft 354 kts 198°
2026-05-07 06:14 -0.45667 109.33760 11317 ft 361 kts 198°
2026-05-07 06:14 -0.48063 109.32968 12010 ft 364 kts 198°
2026-05-07 06:15 -0.50483 109.32169 12695 ft 368 kts 198°
2026-05-07 06:15 -0.52924 109.31365 13352 ft 372 kts 198°
2026-05-07 06:15 -0.55395 109.30551 13989 ft 376 kts 197°
2026-05-07 06:15 -0.57892 109.29729 14604 ft 380 kts 197°
2026-05-07 06:16 -0.60415 109.28899 15203 ft 384 kts 197°
2026-05-07 06:16 -0.62962 109.28059 15790 ft 387 kts 197°
2026-05-07 06:16 -0.65536 109.27213 16352 ft 391 kts 197°
2026-05-07 06:16 -0.68131 109.26358 16907 ft 395 kts 197°
2026-05-07 06:17 -0.70753 109.25494 17445 ft 398 kts 197°
2026-05-07 06:17 -0.73392 109.24625 17972 ft 401 kts 197°
2026-05-07 06:17 -0.76060 109.23746 18484 ft 405 kts 197°
2026-05-07 06:17 -0.78746 109.22861 18965 ft 408 kts 197°
2026-05-07 06:18 -0.81450 109.21970 19438 ft 411 kts 197°
2026-05-07 06:18 -0.84177 109.21073 19897 ft 414 kts 197°
2026-05-07 06:18 -0.86925 109.20168 20349 ft 417 kts 197°
2026-05-07 06:18 -0.89690 109.19257 20778 ft 420 kts 197°
2026-05-07 06:19 -0.92470 109.18340 21206 ft 422 kts 197°
2026-05-07 06:19 -0.95270 109.17418 21599 ft 425 kts 197°
2026-05-07 06:19 -0.98086 109.16490 21969 ft 428 kts 197°
2026-05-07 06:19 -1.00920 109.15557 22341 ft 430 kts 197°
2026-05-07 06:20 -1.03768 109.14619 22703 ft 432 kts 196°
2026-05-07 06:20 -1.06632 109.13675 23039 ft 435 kts 196°
2026-05-07 06:20 -1.09514 109.12726 23357 ft 437 kts 196°
2026-05-07 06:20 -1.12370 109.11784 23678 ft 439 kts 196°
2026-05-07 06:21 -1.15316 109.10814 23992 ft 441 kts 196°
2026-05-07 06:21 -1.18237 109.09851 24292 ft 443 kts 196°
2026-05-07 06:21 -1.21172 109.08885 24576 ft 445 kts 196°
2026-05-07 06:21 -1.24119 109.07912 24873 ft 447 kts 196°
2026-05-07 06:22 -1.27077 109.06937 25163 ft 449 kts 196°
2026-05-07 06:22 -1.32992 109.04989 25717 ft 452 kts 196°
2026-05-07 06:22 -1.35990 109.04001 25963 ft 454 kts 196°
2026-05-07 06:23 -1.38998 109.03010 26213 ft 456 kts 196°
2026-05-07 06:23 -1.42019 109.02015 26469 ft 458 kts 196°
2026-05-07 06:23 -1.45046 109.01018 26708 ft 459 kts 196°
2026-05-07 06:23 -1.48083 109.00017 26935 ft 461 kts 196°
2026-05-07 06:24 -1.51135 108.99011 27163 ft 462 kts 197°
2026-05-07 06:24 -1.54198 108.98002 27389 ft 464 kts 197°
2026-05-07 06:24 -1.57264 108.96991 27602 ft 466 kts 197°
2026-05-07 06:24 -1.60349 108.95974 27818 ft 467 kts 197°
2026-05-07 06:25 -1.63438 108.94955 28040 ft 469 kts 197°
2026-05-07 06:25 -1.66538 108.93932 28245 ft 470 kts 197°
2026-05-07 06:25 -1.69653 108.92905 28431 ft 472 kts 197°
2026-05-07 06:25 -1.72769 108.91878 28612 ft 473 kts 197°
2026-05-07 06:26 -1.75904 108.90845 28804 ft 474 kts 197°
2026-05-07 06:26 -1.79042 108.89811 28983 ft 476 kts 197°
2026-05-07 06:26 -1.82191 108.88774 29154 ft 477 kts 197°
2026-05-07 06:26 -1.85344 108.87735 29327 ft 478 kts 197°
2026-05-07 06:27 -1.88504 108.86692 29492 ft 479 kts 197°
2026-05-07 06:27 -1.91679 108.85645 29659 ft 481 kts 197°
2026-05-07 06:27 -1.94860 108.84596 29824 ft 482 kts 197°
2026-05-07 06:27 -1.98044 108.83545 29997 ft 483 kts 197°
2026-05-07 06:28 -2.01200 108.82505 30210 ft 483 kts 197°
2026-05-07 06:28 -2.04424 108.81441 30484 ft 482 kts 197°
2026-05-07 06:28 -2.07607 108.80391 30747 ft 481 kts 197°
2026-05-07 06:28 -2.10781 108.79345 31018 ft 480 kts 197°
2026-05-07 06:29 -2.13913 108.78312 31296 ft 479 kts 197°
2026-05-07 06:29 -2.17079 108.77267 31595 ft 479 kts 197°
2026-05-07 06:29 -2.20235 108.76226 31891 ft 478 kts 197°
2026-05-07 06:29 -2.23391 108.75184 32201 ft 477 kts 197°
2026-05-07 06:30 -2.26541 108.74145 32508 ft 477 kts 197°
2026-05-07 06:30 -2.29691 108.73106 32842 ft 476 kts 197°
2026-05-07 06:30 -2.32833 108.72070 33180 ft 475 kts 197°
2026-05-07 06:30 -2.35960 108.71038 33503 ft 474 kts 197°
2026-05-07 06:31 -2.39091 108.70005 33803 ft 474 kts 197°
2026-05-07 06:31 -2.42228 108.68970 33788 ft 476 kts 197°
2026-05-07 06:31 -2.48498 108.66901 33802 ft 473 kts 197°
2026-05-07 06:32 -2.54762 108.64935 33806 ft 471 kts 195°
2026-05-07 06:32 -2.61023 108.63055 33804 ft 469 kts 195°
2026-05-07 06:33 -2.67271 108.61179 33817 ft 468 kts 195°
2026-05-07 06:33 -2.73511 108.59289 33816 ft 469 kts 195°
2026-05-07 06:34 -2.79758 108.57389 33814 ft 470 kts 195°
2026-05-07 06:34 -2.86018 108.55483 33820 ft 471 kts 195°
2026-05-07 06:35 -2.92294 108.53573 33814 ft 471 kts 195°
2026-05-07 06:35 -2.98577 108.51660 33816 ft 473 kts 195°
2026-05-07 06:36 -3.04869 108.49745 33818 ft 473 kts 195°
2026-05-07 06:36 -3.11166 108.47828 33813 ft 473 kts 195°
2026-05-07 06:37 -3.17464 108.45912 33815 ft 473 kts 195°
2026-05-07 06:37 -3.23753 108.43997 33814 ft 472 kts 195°
2026-05-07 06:38 -3.30032 108.42084 33818 ft 472 kts 195°
2026-05-07 06:38 -3.36308 108.40174 33813 ft 471 kts 195°
2026-05-07 06:39 -3.42574 108.38264 33815 ft 471 kts 195°
2026-05-07 06:39 -3.48830 108.36359 33814 ft 470 kts 195°
2026-05-07 06:40 -3.54029 108.34775 33815 ft 470 kts 195°
2026-05-07 06:40 -3.61295 108.32562 33816 ft 469 kts 195°
2026-05-07 06:41 -3.66529 108.30966 33818 ft 469 kts 195°
2026-05-07 06:41 -3.72772 108.29063 33814 ft 469 kts 195°
2026-05-07 06:42 -3.79015 108.27159 33819 ft 469 kts 195°
2026-05-07 06:42 -3.85263 108.25257 33813 ft 470 kts 195°
2026-05-07 06:43 -3.91517 108.23349 33814 ft 470 kts 195°
2026-05-07 06:43 -3.97766 108.21442 33818 ft 470 kts 195°
2026-05-07 06:44 -4.04018 108.19534 33823 ft 470 kts 195°
2026-05-07 06:44 -4.10275 108.17623 33824 ft 470 kts 195°
2026-05-07 06:45 -4.16403 108.15357 33834 ft 471 kts 205°
2026-05-07 06:45 -4.22189 108.12248 33829 ft 472 kts 208°
2026-05-07 06:46 -4.27943 108.09065 33823 ft 472 kts 207°
2026-05-07 06:46 -4.33728 108.05958 33822 ft 472 kts 207°
2026-05-07 06:47 -4.39539 108.02894 33826 ft 472 kts 206°
2026-05-07 06:47 -4.45351 107.99841 33823 ft 472 kts 206°
2026-05-07 06:48 -4.51126 107.96805 33822 ft 472 kts 207°
2026-05-07 06:48 -4.56938 107.93746 33824 ft 471 kts 206°
2026-05-07 06:49 -4.62743 107.90690 33822 ft 471 kts 206°
2026-05-07 06:49 -4.68545 107.87633 33820 ft 471 kts 207°
2026-05-07 06:50 -4.74351 107.84575 33826 ft 471 kts 207°
2026-05-07 06:50 -4.80157 107.81518 33824 ft 471 kts 207°
2026-05-07 06:51 -4.85957 107.78461 33826 ft 471 kts 207°
2026-05-07 06:51 -4.91762 107.75401 33826 ft 471 kts 207°
2026-05-07 06:52 -4.97570 107.72339 33824 ft 471 kts 207°
2026-05-07 06:52 -5.03376 107.69276 33827 ft 472 kts 207°
2026-05-07 06:53 -5.09183 107.66214 33825 ft 472 kts 207°
2026-05-07 06:53 -5.14990 107.63149 33821 ft 472 kts 207°
2026-05-07 06:54 -5.17825 107.61472 33375 ft 477 kts 219°
2026-05-07 06:54 -5.20081 107.59072 32957 ft 471 kts 234°
2026-05-07 06:54 -5.21623 107.56198 32406 ft 465 kts 248°
2026-05-07 06:54 -5.22794 107.53201 31890 ft 459 kts 249°
2026-05-07 06:55 -5.23913 107.50221 31351 ft 453 kts 249°
2026-05-07 06:55 -5.25017 107.47284 30828 ft 448 kts 248°
2026-05-07 06:55 -5.26125 107.44381 30316 ft 443 kts 248°
2026-05-07 06:55 -5.27234 107.41516 29798 ft 438 kts 248°
2026-05-07 06:56 -5.28342 107.38687 29293 ft 433 kts 248°
2026-05-07 06:56 -5.29441 107.35894 28789 ft 428 kts 248°
2026-05-07 06:56 -5.30532 107.33127 28238 ft 425 kts 248°
2026-05-07 06:56 -5.31611 107.30385 27781 ft 420 kts 248°
2026-05-07 06:57 -5.32678 107.27672 27289 ft 416 kts 248°
2026-05-07 06:57 -5.33735 107.24985 26804 ft 412 kts 248°
2026-05-07 06:57 -5.34780 107.22326 26315 ft 408 kts 248°
2026-05-07 06:57 -5.35812 107.19694 25834 ft 405 kts 249°
2026-05-07 06:58 -5.36835 107.17077 25333 ft 402 kts 249°
2026-05-07 06:58 -5.37921 107.14499 24658 ft 403 kts 242°
2026-05-07 06:58 -5.39485 107.12133 23780 ft 410 kts 231°
2026-05-07 06:58 -5.41286 107.09902 23106 ft 411 kts 230°
2026-05-07 06:59 -5.43101 107.07699 22621 ft 406 kts 230°
2026-05-07 06:59 -5.44889 107.05528 22187 ft 400 kts 230°
2026-05-07 06:59 -5.46643 107.03383 21682 ft 397 kts 230°
2026-05-07 06:59 -5.48383 107.01240 21164 ft 394 kts 230°
2026-05-07 07:00 -5.50101 106.99109 20647 ft 391 kts 231°
2026-05-07 07:00 -5.51799 106.96996 20163 ft 387 kts 230°
2026-05-07 07:00 -5.53506 106.94869 19665 ft 384 kts 230°
2026-05-07 07:00 -5.55157 106.92812 19092 ft 383 kts 230°
2026-05-07 07:01 -5.56817 106.90740 18619 ft 379 kts 230°
2026-05-07 07:01 -5.58461 106.88688 18149 ft 375 kts 230°
2026-05-07 07:01 -5.60086 106.86659 17681 ft 371 kts 230°
2026-05-07 07:01 -5.61698 106.84646 17217 ft 367 kts 230°
2026-05-07 07:02 -5.63309 106.82634 16767 ft 364 kts 230°
2026-05-07 07:02 -5.64868 106.80687 16359 ft 359 kts 230°
2026-05-07 07:02 -5.66415 106.78755 16030 ft 353 kts 230°
2026-05-07 07:02 -5.67946 106.76842 15611 ft 349 kts 230°
2026-05-07 07:03 -5.69459 106.74949 15188 ft 346 kts 230°
2026-05-07 07:03 -5.70963 106.73071 14758 ft 344 kts 230°
2026-05-07 07:03 -5.72453 106.71210 14337 ft 341 kts 230°
2026-05-07 07:03 -5.73935 106.69356 13928 ft 341 kts 231°
2026-05-07 07:04 -5.75448 106.67539 13498 ft 338 kts 229°
2026-05-07 07:04 -5.76876 106.65670 13049 ft 335 kts 232°
2026-05-07 07:04 -5.78307 106.63834 12625 ft 333 kts 231°
2026-05-07 07:04 -5.79756 106.62016 12216 ft 333 kts 230°
2026-05-07 07:05 -5.81205 106.60215 11778 ft 331 kts 230°
2026-05-07 07:05 -5.82649 106.58423 11372 ft 331 kts 230°
2026-05-07 07:05 -5.84088 106.56638 10936 ft 326 kts 230°
2026-05-07 07:05 -5.85522 106.54874 10515 ft 324 kts 229°
2026-05-07 07:06 -5.86930 106.53148 10379 ft 316 kts 229°
2026-05-07 07:06 -5.88273 106.51448 10213 ft 306 kts 231°
2026-05-07 07:06 -5.89575 106.49801 10074 ft 296 kts 230°
2026-05-07 07:06 -5.90863 106.48188 9850 ft 290 kts 230°
2026-05-07 07:07 -5.92106 106.46635 9516 ft 288 kts 230°
2026-05-07 07:07 -5.93359 106.45072 9189 ft 286 kts 230°
2026-05-07 07:07 -5.94626 106.43520 8849 ft 287 kts 230°
2026-05-07 07:07 -5.95863 106.41943 8500 ft 288 kts 230°
2026-05-07 07:08 -5.97107 106.40379 8160 ft 286 kts 230°
2026-05-07 07:08 -5.98354 106.38821 7821 ft 286 kts 230°
2026-05-07 07:08 -5.99593 106.37270 7565 ft 282 kts 230°
2026-05-07 07:08 -6.00798 106.35760 7443 ft 273 kts 230°
2026-05-07 07:09 -6.01968 106.34295 7311 ft 264 kts 230°
2026-05-07 07:09 -6.03104 106.32880 7232 ft 257 kts 229°
2026-05-07 07:09 -6.04442 106.31744 6962 ft 251 kts 197°
2026-05-07 07:09 -6.06127 106.31650 7027 ft 245 kts 171°
2026-05-07 07:10 -6.07825 106.31869 6963 ft 247 kts 166°
2026-05-07 07:10 -6.09500 106.32208 6897 ft 244 kts 167°
2026-05-07 07:10 -6.11161 106.32516 6848 ft 242 kts 167°
2026-05-07 07:10 -6.12816 106.32815 6803 ft 241 kts 167°
2026-05-07 07:11 -6.14473 106.33111 6742 ft 244 kts 168°
2026-05-07 07:11 -6.16142 106.33407 6674 ft 242 kts 167°
2026-05-07 07:11 -6.17792 106.33696 6608 ft 239 kts 169°
2026-05-07 07:11 -6.19446 106.33977 6557 ft 242 kts 158°
2026-05-07 07:12 -6.20831 106.34862 6505 ft 234 kts 134°
2026-05-07 07:12 -6.21829 106.36145 6467 ft 234 kts 119°
2026-05-07 07:12 -6.22657 106.37557 6395 ft 235 kts 120°
2026-05-07 07:12 -6.23495 106.38938 6196 ft 226 kts 119°
2026-05-07 07:13 -6.23901 106.40405 5803 ft 218 kts 79°
2026-05-07 07:13 -6.23351 106.41810 5488 ft 214 kts 66°
2026-05-07 07:13 -6.22744 106.43183 5115 ft 216 kts 68°
2026-05-07 07:13 -6.22197 106.44585 4672 ft 214 kts 69°
2026-05-07 07:14 -6.21635 106.45934 4200 ft 201 kts 68°
2026-05-07 07:14 -6.21127 106.47163 4042 ft 181 kts 69°
2026-05-07 07:14 -6.20661 106.48318 3626 ft 175 kts 69°
2026-05-07 07:14 -6.20213 106.49413 3245 ft 165 kts 68°
2026-05-07 07:15 -6.19778 106.50454 2940 ft 157 kts 69°
2026-05-07 07:15 -6.19364 106.51477 2739 ft 155 kts 69°
2026-05-07 07:15 -6.18978 106.52443 2509 ft 145 kts 69°
2026-05-07 07:15 -6.18599 106.53397 2320 ft 148 kts 69°
2026-05-07 07:16 -6.18223 106.54351 2122 ft 145 kts 68°
2026-05-07 07:16 -6.17855 106.55274 1928 ft 141 kts 68°
2026-05-07 07:16 -6.17494 106.56190 1743 ft 142 kts 67°
2026-05-07 07:16 -6.17128 106.57114 1561 ft 143 kts 68°
2026-05-07 07:17 -6.16756 106.58049 1374 ft 148 kts 66°
2026-05-07 07:17 -6.16374 106.59015 1172 ft 148 kts 66°
2026-05-07 07:17 -6.15999 106.59962 988 ft 145 kts 66°
2026-05-07 07:17 -6.15624 106.60909 791 ft 148 kts 66°
2026-05-07 07:18 -6.15245 106.61869 590 ft 147 kts 67°
2026-05-07 07:18 -6.14865 106.62818 405 ft 147 kts 67°
2026-05-07 07:18 -6.14485 106.63784 207 ft 150 kts 66°
2026-05-07 07:18 -6.14224 106.64426 73 ft 151 kts 67°
2026-05-07 07:19 -6.13831 106.65404 38 ft 122 kts 68°
2026-05-07 07:19 -6.13576 106.66038 36 ft 63 kts 67°
2026-05-07 07:19 -6.13471 106.66206 38 ft 7 kts 41°
2026-05-07 07:19 -6.13435 106.66240 39 ft 8 kts 44°
2026-05-07 07:20 -6.13425 106.66249 39 ft 0 kts 40°
2026-05-07 07:20 -6.13423 106.66250 39 ft 0 kts 40°
2026-05-07 07:20 -6.13421 106.66252 37 ft 0 kts 40°
2026-05-07 07:20 -6.13419 106.66255 39 ft 1 kts 40°
2026-05-07 07:21 -6.13403 106.66267 38 ft 5 kts 38°
2026-05-07 07:21 -6.13365 106.66292 38 ft 8 kts 25°
2026-05-07 07:21 -6.13314 106.66283 38 ft 8 kts 318°
2026-05-07 07:21 -6.13309 106.66229 38 ft 10 kts 250°
2026-05-07 07:22 -6.13343 106.66142 35 ft 17 kts 248°
2026-05-07 07:22 -6.13391 106.66019 37 ft 18 kts 248°
2026-05-07 07:22 -6.13434 106.65912 35 ft 10 kts 248°
2026-05-07 07:22 -6.13416 106.65851 36 ft 10 kts 327°
2026-05-07 07:23 -6.13352 106.65824 37 ft 10 kts 338°
2026-05-07 07:23 -6.13288 106.65812 37 ft 9 kts
2026-05-07 07:23 -6.13237 106.65819 37 ft 7 kts
2026-05-07 07:23 -6.13198 106.65806 36 ft 4 kts 303°
2026-05-07 07:24 -6.13189 106.65777 37 ft 4 kts 279°
2026-05-07 07:24 -6.13186 106.65760 37 ft 0 kts 279°
2026-05-07 07:24 -6.13186 106.65756 37 ft 0 kts 279°